User: anonymous
Location: Huntington Beach
(33.6600°N, 117.9980°W)
Time: 05:23:42
(UTC-07:00)
Language:

HST - Orbit

View from above orbital plane
View from above orbital plane
View from above satellite
View from above satellite

Ground track
Ground track

The orbit data is extracted from the following two-line orbital elements,

1 20580U 90037B   14109.12308177  .00004857  00000-0  32036-3 0  4848
2 20580 028.4706 065.3515 0003228 017.5033 081.8041 15.05196879115801
Epoch (UTC): 19 April 2014 02:57:14
Eccentricity: 0.0003228
inclination: 28.4706°
perigee height: 548 km
apogee height: 553 km
right ascension of ascending node: 65.3515°
argument of perigee: 17.5033°
revolutions per day: 15.05196879
mean anomaly at epoch: 81.8041°
orbit number at epoch: 11580

The dashed part of the orbit path shows where the satellite is in the earth's shadow,  

DLR